This demonstration page uses our WeatherBlox Daily Observations layout. Learn more.

41.55636, -103.73856

Hourly Observations for August 4, 2015

Temp ( °F °C ) Dew Point ( °F °C ) Humidity (%) Winds ( mph kmh ) Pressure ( in mb ) Visibility ( mi km ) Precip ( " mm )
12:53 am 00:53 Mostly Clear 72 22.2 51 10.6 48 48 SSW 6 9 29.83 1010 10 16.0934 0 0
1:53 am 01:53 Clear 65 18.3 55 12.8 70 70 E 3 6 29.83 1010 10 16.0934 0 0
2:53 am 02:53 Clear 62 16.7 55 12.8 78 78 E 6 9 29.8 1009 10 16.0934 0 0
3:53 am 03:53 Clear 60 15.6 55 12.8 84 84 E 6 9 29.79 1009 10 16.0934 0 0
4:53 am 04:53 Clear 60 15.6 53 11.7 78 78 ESE 5 7 29.81 1009 10 16.0934 0 0
5:53 am 05:53 Sunny 58 14.4 54 12.2 87 87 Calm 29.82 1010 10 16.0934 0 0
6:53 am 06:53 Mostly Sunny 61 16.1 54 12.2 78 78 Calm 29.85 1011 10 16.0934 0 0
7:53 am 07:53 Sunny 64 17.8 55 12.8 73 73 Calm 29.88 1012 10 16.0934 0 0
8:53 am 08:53 Cloudy with Light Rain 67 19.4 57 13.9 71 71 NNW 5 7 29.87 1012 9 14.48406 0 0.0254
9:53 am 09:53 Partly Cloudy 70 21.1 56 13.3 61 61 SE 10 17 29.88 1012 10 16.0934 0.01 0.254
10:53 am 10:53 Mostly Sunny 73 22.8 57 13.9 57 57 SE 10 17 29.86 1011 10 16.0934 0 0
11:53 am 11:53 Mostly Sunny 78 25.6 55 12.8 45 45 ESE 8 13 29.85 1011 10 16.0934 0 0
12:53 pm 12:53 Mostly Cloudy 79 26.1 56 13.3 45 45 SSE 12 19 29.84 1011 10 16.0934 0 0
1:53 pm 13:53 Mostly Cloudy 79 26.1 56 13.3 45 45 E 9 15 29.85 1011 10 16.0934 0 0
2:53 pm 14:53 Cloudy 74 23.3 63 17.2 69 69 ESE 16 26 29.87 1012 10 16.0934 0 0.0254
3:12 pm 15:12 Cloudy with Nearby Thunderstorms 73 23 63 17 69 69 ESE 21 33 29.74 1007 10 16.0934 0 0
3:38 pm 15:38 Cloudy with Light Thunderstorms 70 21 63 17 78 78 NE 15 24 29.83 1010 6 9.65604 0 0
3:41 pm 15:41 Cloudy with Heavy Thunderstorms 68 20 64 17.8 87 87 NNE 16 26 29.85 1011 2 3.21868 0.01 0.254
3:45 pm 15:45 Cloudy with Heavy Thunderstorms 65 18.3 62 16.7 90 90 ENE 20 31 29.88 1012 0.75 1.207005 0.09 2.286
3:53 pm 15:53 Cloudy with Light Thunderstorms 65 18.3 60 15.6 84 84 E 12 19 29.91 1013 1 1.60934 0.28 7.112
3:57 pm 15:57 Cloudy with Light Thunderstorms 64 17.8 60 15.6 87 87 ESE 7 11 29.83 1010 4 6.43736 0 0.0254
4:43 pm 16:43 Cloudy with Nearby Thunderstorms 68 20 N/A N/A SE 8 13 29.8 1009 10 16.0934 0.06 1.524
4:50 pm 16:50 Mostly Cloudy 68 20 N/A N/A SSE 9 15 29.8 1009 10 16.0934 0 0
4:53 pm 16:53 Mostly Cloudy 70 21 N/A N/A SSE 8 13 29.9 1013 10 16.0934 0.06 1.524
5:53 pm 17:53 Sunny 72 22 N/A N/A E 3 6 29.9 1013 10 16.0934 0 0
6:53 pm 18:53 Sunny 70 21.1 67 19.4 90 90 SSE 5 7 29.9 1012 10 16.0934 0 0
7:53 pm 19:53 Sunny 69 20.6 65 18.3 87 87 ESE 3 6 29.91 1013 10 16.0934 0 0
8:53 pm 20:53 Clear 66 18.9 64 17.8 93 93 ENE 6 9 29.93 1014 10 16.0934 0 0
9:53 pm 21:53 Clear 67 19.4 64 17.8 91 91 Calm 29.94 1014 10 16.0934 0 0
10:53 pm 22:53 Clear with Mist and Fog 65 18.3 64 17.8 97 97 Calm 29.96 1015 5 8.0467 0 0
11:23 pm 23:23 Mostly Clear with Mist and Fog 64 17.8 63 17.2 96 96 Calm 29.94 1014 5 8.0467 0 0
11:30 pm 23:30 Partly Cloudy with Mist and Fog 64 18 63 17 94 94 Calm 29.91 1013 1.5 2.41401 0 0
11:32 pm 23:32 Mostly Cloudy with Mist and Fog 64 18 63 17 94 94 Calm 29.91 1013 0.75 1.207005 0 0
11:44 pm 23:44 Mostly Cloudy with Fog 63 17 63 17 100 100 N 3 6 29.94 1014 0.25 0.402335 0 0
11:53 pm 23:53 Mostly Cloudy with Fog 63 17.2 62 16.7 97 97 ENE 3 6 29.95 1014 0.25 0.402335 0 0
11:59 pm 23:59 Mostly Cloudy with Mist and Fog 63 17.2 62 16.7 97 97 NE 3 6 29.94 1014 1.25 2.011675 0 0

Powered by AerisWeather